Location: Sobotiste
(48.7170°N, 17.4000°E)
Time: 09:00:58
(UTC+02:00)

YUBILEINY - Pass Details

Date: 12 March 2026
Orbit: 1477 x 1509 km, 82.5° (Epoch: 17 April)

Event Time Altitude Azimuth Distance (km) Brightness Sun altitude
Rises 04:27:07 0° 347° (NNW) 4,626 ? -17.7°
Reaches altitude 10° 04:30:08 10° 342° (NNW) 3,638 ? -17.2°
Maximum altitude 04:38:17 46° 273° (W) 1,900 ? -15.9°
Drops below altitude 10° 04:46:22 10° 203° (SSW) 3,607 ? -14.6°
Sets 04:49:22 0° 198° (SSW) 4,582 ? -14.1°
